Regional Weather Roundup
Issued by NWS Cleveland, OH

Home | Current Version | Previous Version | Graphics & Text | Print | Product List | Glossary On
Versions: 1 2 3 4 5 6 7 8 9 10 11 12 13 14 15 16 17 18 19 20 21 22 23 24 25 26 27 28 29 30 31 32 33 34 35 36 37 38 39 40 41 42 43 44 45 46 47 48 49 50
000
ASUS41 KCLE 302110
RWRCLE
OHIO REGIONAL WEATHER ROUNDUP
NATIONAL WEATHER SERVICE CLEVELAND, OH
500 PM EDT WED JUL 30 2014

NOTE: "FAIR" INDICATES FEW OR NO CLOUDS BELOW 12,000 FEET WITH NO
SIGNIFICANT WEATHER AND/OR OBSTRUCTIONS TO VISIBILITY.

OHZ001>008-015>018-024>027-034-035-043-044-302200-
   NORTHWEST OHIO

CITY           SKY/WX    TMP DP  RH WIND       PRES   REMARKS
DEFIANCE       PTSUNNY   78  56  46 W7        29.99S
FINDLAY        SUNNY     78  56  46 W16       29.99S
TOLEDO EXPRESS CLOUDY    74  56  53 N7        29.97S
TOLEDO EXEC    HVY RAIN  70  57  63 MISG      30.00R
LIMA           MOSUNNY   76  58  53 W13       30.01S
$$

OHZ009>014-019>023-028>033-038-089-302200-
   NORTHEAST OHIO

CITY           SKY/WX    TMP DP  RH WIND       PRES   REMARKS
CLE-HOPKINS    PTSUNNY   72  60  66 VRB5      30.01S
CLE-LAKEFRONT  CLOUDY    71  59  65 N5        29.99S
CUY CO. ARPT   PTSUNNY   77  61  57 NW9       30.01S
LORAIN-ELYRIA  PTSUNNY   74  61  63 N7        30.00S
ASHTABULA      MOSUNNY   72  59  63 NW8       30.00S
AKRON-CANTON   PTSUNNY   72  55  55 SW10      30.01F
WOOSTER        MOSUNNY   71  59  65 S8        30.02F
MANSFIELD      CLOUDY    74  58  57 VRB7      30.01S
YOUNGSTOWN     TSTM      68  59  73 W3        30.01S
$$

OHZ042-051>053-060>062-070>072-077>081-302200-
  SOUTHWEST OHIO

CITY           SKY/WX    TMP DP  RH WIND       PRES   REMARKS
CINC-COVINGTON PTSUNNY   77  56  48 W12G20    30.04R
CINC-LUNKEN    PTSUNNY   78  57  48 W15G22    30.03R
HAMILTON       LGT RAIN  69  62  78 W10       30.04S
DAYTON         PTSUNNY   78  56  46 NW12G21   30.03S
WRIGHT-PAT AFB MOSUNNY   76  59  55 NW7       30.02S
DAYTON GENERAL PTSUNNY   76  61  59 NW10      30.03R
WILMINGTON     LGT RAIN  64  58  80 VRB5      30.05F
$$

OHZ036-037-039>041-045>050-054>059-063>069-073>076-082>088-302200-
  CENTRAL AND SOUTHEAST OHIO

CITY           SKY/WX    TMP DP  RH WIND       PRES   REMARKS
COLUMBUS       MOSUNNY   73  60  63 SW10      30.03S
OSU AIRPORT    LGT RAIN  72  61  68 S9        30.02S
BOLTON FIELD   NOT AVBL
RICKENBACK AFB MOSUNNY   72  58  60 SW9G20    30.03S
NEWARK         LGT RAIN  68  60  75 SW6       30.03F
MARION         MOSUNNY   76  56  49 NW12      30.01S
LANCASTER      PTSUNNY   69  60  73 SW8       30.04F
ZANESVILLE     TSTM      63  58  83 NW12      30.06R
NEW PHILLY     TSTM      67  62  84 MISG      30.03R
$$


USA.gov is the U.S. government's official web portal to all federal, state and local government web resources and services.